HST
1 20580U 90037B   25022.15491179  .00012566  00000-0  51700-3 0  9998
2 20580  28.4690 312.9466 0002431 279.4179  80.6140 15.22570831710647
ISS (ZARYA)
1 25544U 98067A   25022.21181189  .00028985  00000-0  50717-3 0  9997
2 25544  51.6377 310.1099 0002183 121.1655 238.9549 15.50378816492525
CXO
1 25867U 99040B   25023.99516665  .00000689  00000-0  00000-0 0  9992
2 25867  46.2215 137.3609 8627046 306.4572   0.5200  0.37805238 15402